SL-8 DEB, 1590

Orbit data source: Space-Track

SL-8 DEB, 1590 is space debris in LEO originally from a launch on Sat, 18 Sep 1965 UTC launched from the Tyuratam Missile And Space Complex (TTMTR). Debris objects in space refer to the collection of defunct objects orbiting the Earth. Examples of debris include non-operational satellites, rocket bodies, and fragments generated from explosions, collisions, or faulty payload assembly.

Loading next visibility...
Identifier
1590, 1965-073G
Orbit
LEO
Country
Flag of CISCIS
Related business
Manufacturer
Unknown
Mission
Spacecraft
Bus & Motor
Unknown
Mass
Unknown
Launch date (UTC)
1965-09-18 (60 years ago)
Launch vehicle
Unknown
Launch site
Tyuratam Missile And Space Complex (TTMTR)
Object type
Payload
Rocket body
Debris
Shape & HBR
Unknown shape, 0.1 m
Radar Cross Section
Small (<0.1 m²)

Expand to show TLE details & history
Last TLE update: 4 days ago

TLE from 4 days ago
0 SL-8 DEB
1  1590U 65073G   26030.24096788  .00000095  00000-0  11813-2 0  9991
2  1590  56.0863 107.5780 0177516 210.5151 183.5715 12.49810922741094
Epoch: 2026-01-30T05:46Z
TLE epoch observation values (Epoch: 2026-01-30T05:46:59.624Z)
Latitude
27.68612°
Longitude
-88.09983°
Altitude
1,605.847 km
Speed
7.007 km/s
True Right ascension
08h 32m 31s
True Declination
27° 33' 36"
Sunlit
Object was in full shadow at epoch
Visualization orbit readout
Latitude
Unknown
Longitude
Unknown
Altitude
Unknown
Speed
Unknown
Apparent Right ascension
Unknown
Apparent Declination
Unknown
Sunlit
N/A
Visualization observer readout
Local Sidereal Time
06:41:21
Azimuth
Unknown
Elevation
Unknown
Doppler factor
Unknown
Orbital elements
Apogee altitude
1,604.335 km
Perigee altitude
1,325.875 km
Semi-major axis
7,843.242 km
Eccentricity
0.01775
Inclination
56.0863°
RAAN
107.578°
Arg. of periapsis
210.5151°
True anomaly
183.44753°
Mean anomaly
183.5715°
Eccentric anomaly
183.50924°
Mean motion
3.12464 °/min
Orbital period
115.21 mins
BSTAR
0.0011813
Loading maneuver chart data...
Computing Atmospheric mass density...
Loading historical data...
Loading historical data...
Loading historical data...
Loading historical data...
Loading historical data...
Loading historical data...
Loading historical data...

Documentation

Showing up to 5 results
|